Overview Statistics Trail Chart Weather Telemetry Raw packets
 

This is the latest recevied weather packets stored in our database for station/object KD7DVD-1. If no packets are shown the sender has not sent any weather packets the latest 10 day(s).

<< 4 5 6 7 8 9 10 >>
Time Temp. Humidity Pressure Rain* Wind** Luminosity Snow
1788436817 11.67° C 94% 1007.9 hPa 0 mm - - -
1788435017 11.67° C 94% 1007.6 hPa 0 mm - - -
1788433217 11.67° C 94% 1007.6 hPa 0 mm - - -
1788431422 11.67° C 95% 1007.6 hPa 0.25 mm - - -
1788429618 11.67° C 94% 1007.5 hPa 0.25 mm - - -
1788427817 11.67° C 95% 1007.6 hPa 0 mm - - -
1788426022 11.11° C 94% 1007.4 hPa 0 mm - - -
1788424217 11.11° C 95% 1007.3 hPa 0 mm - - -
1788422417 11.11° C 94% 1007.3 hPa 0 mm - - -
1788420622 11.11° C 94% 1007.1 hPa 0 mm - - -
1788418816 11.11° C 94% 1007.1 hPa 0 mm - - -
1788417021 11.67° C 94% 1006.9 hPa 0 mm - - -
1788415216 12.22° C 94% 1007 hPa 0 mm - - -
1788413415 12.22° C 93% 1007.2 hPa 0 mm - - -
1788411615 12.78° C 93% 1007 hPa 0 mm - - -
1788409815 12.78° C 93% 1006.9 hPa 0 mm - - -
1788408019 13.33° C 93% 1006.7 hPa 0 mm - - -
1788406217 12.78° C 92% 1006 hPa 0 mm - - -
1788404422 13.33° C 91% 1005.8 hPa 0 mm - - -
1788402622 13.89° C 89% 1005.5 hPa 0 mm - - -
1788400817 15.56° C 87% 1005.2 hPa 0 mm - - -
1788399022 15.56° C 89% 1004.9 hPa 0.25 mm - - -
1788397217 15.56° C 92% 1004.4 hPa 0.51 mm - - -
1788395417 15.56° C 92% 1004.1 hPa 0.25 mm - - -
1788393617 15.56° C 92% 1003.9 hPa 0.76 mm - - -

* Rain latest hour (hover to see other rain measurements)
** Current wind speed in m/s (hover to see current wind gust speed)